| time (UTC) | temp F | wind direction | speed MPH | gust MPH | rain 1hr in | rain 24hr in | rain mn in | humidity % | barometer mb |
| 20260903003109 | 79 | 51 | 0.0 | 3.0 | 0.00 | 0.19 | 0.20 | 1 | 1011.4 |
| 20260903002132 | 79 | 5 | 0.0 | 3.0 | 0.00 | 0.19 | 0.20 | 1 | 1011.6 |
| 20260903001111 | 80 | 148 | 0.0 | 2.0 | 0.00 | 0.19 | 0.20 | 1 | 1011.4 |
| 20260903000101 | 81 | 329 | 0.0 | 4.0 | 0.00 | 0.19 | 0.20 | 1 | 1011.0 |
| 20260902235049 | 81 | 5 | 0.0 | 4.0 | 0.00 | 0.19 | 0.20 | 1 | 1011.1 |
| 20260902234020 | 81 | 82 | 0.0 | 3.0 | 0.05 | 0.19 | 0.20 | 1 | 1010.9 |
| 20260902233002 | 82 | 342 | 0.0 | 5.0 | 0.06 | 0.19 | 0.20 | 1 | 1010.6 |
| 20260902231932 | 83 | 69 | 1.0 | 5.0 | 0.27 | 0.18 | 0.18 | 1 | 1010.4 |
| 20260902230909 | 86 | 0 | 0.0 | 5.0 | 0.15 | 0.07 | 0.06 | 1 | 1011.3 |
| 20260902225910 | 88 | 317 | 0.0 | 5.0 | 0.00 | 0.02 | 0.01 | 23 | 1011.2 |
| 20260902224844 | 89 | 103 | 0.0 | 2.0 | 0.00 | 0.04 | 0.01 | 33 | 1010.6 |
| 20260902223818 | 91 | 348 | 0.0 | 5.0 | 0.00 | 0.04 | 0.01 | 45 | 1010.8 |
| 20260902222830 | 91 | 106 | 0.0 | 5.0 | 0.00 | 0.05 | 0.01 | 46 | 1010.5 |
| 20260902221828 | 91 | 82 | 0.0 | 2.0 | 0.00 | 0.08 | 0.01 | 46 | 1010.3 |
| 20260902220800 | 91 | 55 | 0.0 | 0.0 | 0.00 | 0.13 | 0.01 | 43 | 1010.3 |
| 20260902215756 | 91 | 55 | 0.0 | 3.0 | 0.00 | 0.20 | 0.01 | 46 | 1010.3 |
| 20260902214721 | 91 | 55 | 0.0 | 1.0 | 0.00 | 0.20 | 0.01 | 45 | 1010.4 |
| 20260902210350 | 94 | 336 | 0.0 | 3.0 | 0.00 | 0.20 | 0.01 | 55 | 1010.9 |
| 20260902205328 | 94 | 80 | 0.0 | 3.0 | 0.00 | 0.20 | 0.01 | 55 | 1010.8 |
| 20260902204331 | 94 | 69 | 0.0 | 3.0 | 0.00 | 0.20 | 0.01 | 55 | 1010.8 |
| 20260902202204 | 93 | 117 | 1.0 | 7.0 | 0.00 | 0.20 | 0.01 | 55 | 1011.0 |
| 20260902201224 | 93 | 327 | 1.0 | 6.0 | 0.00 | 0.20 | 0.01 | 54 | 1011.1 |
| 20260902200228 | 93 | 257 | 1.0 | 8.0 | 0.00 | 0.20 | 0.01 | 54 | 1011.1 |
| 20260902195232 | 93 | 204 | 1.0 | 10.0 | 0.00 | 0.20 | 0.01 | 53 | 1011.2 |
| 20260902194216 | 93 | 111 | 1.0 | 11.0 | 0.00 | 0.20 | 0.01 | 51 | 1011.3 |
| 20260902193208 | 92 | 144 | 1.0 | 11.0 | 0.00 | 0.20 | 0.01 | 52 | 1011.5 |
| 20260902192215 | 92 | 336 | 0.0 | 4.0 | 0.00 | 0.20 | 0.01 | 52 | 1011.7 |
| 20260902191229 | 93 | 84 | 1.0 | 3.0 | 0.00 | 0.20 | 0.01 | 52 | 1011.9 |
| 20260902185107 | 93 | 349 | 0.0 | 6.0 | 0.00 | 0.20 | 0.01 | 51 | 1012.1 |
| 20260902184128 | 94 | 71 | 1.0 | 6.0 | 0.00 | 0.20 | 0.01 | 53 | 1012.2 |
| 20260902183149 | 94 | 81 | 1.0 | 7.0 | 0.00 | 0.20 | 0.01 | 52 | 1012.4 |
| 20260902181108 | 92 | 113 | 0.0 | 7.0 | 0.00 | 0.20 | 0.01 | 47 | 1012.8 |
| 20260902180131 | 91 | 218 | 1.0 | 9.0 | 0.00 | 0.20 | 0.01 | 43 | 1013.1 |
| 20260902175129 | 90 | 123 | 0.0 | 9.0 | 0.00 | 0.20 | 0.01 | 32 | 1013.5 |
| 20260902174107 | 90 | 261 | 0.0 | 3.0 | 0.00 | 0.20 | 0.01 | 23 | 1013.7 |
| 20260902173116 | 89 | 257 | 0.0 | 3.0 | 0.00 | 0.20 | 0.01 | 20 | 1013.9 |
| 20260902170934 | 88 | 121 | 1.0 | 5.0 | 0.00 | 0.20 | 0.01 | 16 | 1014.2 |
| 20260902165929 | 88 | 128 | 0.0 | 6.0 | 0.00 | 0.20 | 0.01 | 11 | 1014.3 |
| 20260902164904 | 87 | 299 | 1.0 | 6.0 | 0.00 | 0.20 | 0.01 | 9 | 1014.5 |
| 20260902162750 | 87 | 126 | 0.0 | 7.0 | 0.00 | 0.20 | 0.01 | 1 | 1014.5 |
| 20260902155533 | 84 | 136 | 1.0 | 8.0 | 0.00 | 0.20 | 0.01 | 1 | 1014.5 |
| 20260902153430 | 83 | 263 | 0.0 | 3.0 | 0.00 | 0.20 | 0.01 | 1 | 1014.4 |
| 20260902152421 | 83 | 178 | 0.0 | 2.0 | 0.00 | 0.20 | 0.01 | 1 | 1014.4 |
| 20260902151412 | 82 | 256 | 0.0 | 5.0 | 0.00 | 0.20 | 0.01 | 1 | 1014.5 |
| 20260902150347 | 81 | 281 | 0.0 | 5.0 | 0.00 | 0.20 | 0.01 | 1 | 1014.5 |
| 20260902145320 | 81 | 49 | 0.0 | 5.0 | 0.00 | 0.20 | 0.01 | 1 | 1014.6 |
| 20260902142026 | 80 | 88 | 0.0 | 0.0 | 0.00 | 0.20 | 0.01 | 1 | 1014.4 |
| 20260902141039 | 80 | 75 | 0.0 | 5.0 | 0.00 | 0.20 | 0.01 | 1 | 1014.4 |
| 20260902140014 | 80 | 75 | 0.0 | 5.0 | 0.00 | 0.20 | 0.01 | 1 | 1014.3 |
| 20260902135000 | 80 | 131 | 0.0 | 2.0 | 0.00 | 0.20 | 0.01 | 1 | 1014.3 |
| 20260902134002 | 80 | 67 | 0.0 | 0.0 | 0.00 | 0.20 | 0.01 | 1 | 1014.3 |
| 20260902131905 | 80 | 172 | 0.0 | 1.0 | 0.00 | 0.20 | 0.01 | 1 | 1014.2 |
| 20260902130832 | 80 | 224 | 0.0 | 0.0 | 0.00 | 0.20 | 0.01 | 1 | 1014.1 |
| 20260902125854 | 80 | 248 | 0.0 | 0.0 | 0.00 | 0.20 | 0.01 | 1 | 1013.9 |
| 20260902123750 | 80 | 123 | 0.0 | 0.0 | 0.00 | 0.20 | 0.01 | 1 | 1013.5 |
| 20260902122803 | 80 | 287 | 0.0 | 0.0 | 0.00 | 0.20 | 0.01 | 1 | 1013.3 |
| 20260902121817 | 80 | 138 | 0.0 | 1.0 | 0.00 | 0.20 | 0.01 | 1 | 1013.0 |
| 20260902120840 | 80 | 61 | 0.0 | 0.0 | 0.00 | 0.20 | 0.01 | 1 | 1012.7 |
| 20260902115820 | 80 | 260 | 0.0 | 0.0 | 0.00 | 0.20 | 0.01 | 1 | 1012.6 |
| 20260902114838 | 80 | 165 | 0.0 | 0.0 | 0.00 | 0.20 | 0.01 | 1 | 1012.5 |
| 20260902113855 | 80 | 115 | 0.0 | 3.0 | 0.00 | 0.20 | 0.01 | 1 | 1012.4 |
| 20260902112824 | 79 | 327 | 0.0 | 2.0 | 0.00 | 0.20 | 0.01 | 1 | 1012.4 |
| 20260902111800 | 79 | 135 | 0.0 | 3.0 | 0.00 | 0.20 | 0.01 | 1 | 1012.2 |
| 20260902110727 | 79 | 249 | 0.0 | 3.0 | 0.00 | 0.20 | 0.01 | 1 | 1012.3 |
| 20260902105715 | 79 | 270 | 0.0 | 3.0 | 0.00 | 0.20 | 0.01 | 1 | 1012.3 |
| 20260902104641 | 79 | 154 | 0.0 | 1.0 | 0.00 | 0.20 | 0.01 | 1 | 1012.2 |
| 20260902102439 | 78 | 63 | 0.0 | 1.0 | 0.00 | 0.20 | 0.01 | 1 | 1012.3 |
| 20260902101406 | 78 | 252 | 0.0 | 1.0 | 0.00 | 0.20 | 0.01 | 1 | 1012.4 |
| 20260902095245 | 78 | 179 | 0.0 | 0.0 | 0.00 | 0.20 | 0.01 | 1 | 1012.4 |
| 20260902093113 | 77 | 214 | 0.0 | 0.0 | 0.00 | 0.20 | 0.01 | 1 | 1012.6 |
| 20260902092125 | 77 | 153 | 0.0 | 0.0 | 0.00 | 0.20 | 0.01 | 1 | 1012.5 |
| 20260902091052 | 77 | 153 | 0.0 | 0.0 | 0.00 | 0.20 | 0.01 | 1 | 1012.5 |
| 20260902090021 | 77 | 221 | 0.0 | 1.0 | 0.00 | 0.20 | 0.01 | 1 | 1012.4 |
| 20260902084958 | 77 | 167 | 0.0 | 0.0 | 0.00 | 0.19 | 0.00 | 1 | 1012.5 |
| 20260902082826 | 77 | 167 | 0.0 | 0.0 | 0.00 | 0.19 | 0.00 | 1 | 1012.5 |
| 20260902081756 | 77 | 167 | 0.0 | 0.0 | 0.00 | 0.19 | 0.00 | 1 | 1012.4 |
| 20260902080758 | 77 | 167 | 0.0 | 0.0 | 0.00 | 0.19 | 0.00 | 1 | 1012.5 |
| 20260902075815 | 77 | 167 | 0.0 | 0.0 | 0.00 | 0.19 | 0.00 | 1 | 1012.6 |
| 20260902073600 | 77 | 181 | 0.0 | 0.0 | 0.00 | 0.19 | 0.00 | 1 | 1012.5 |
| 20260902072600 | 77 | 177 | 0.0 | 0.0 | 0.00 | 0.19 | 0.00 | 1 | 1012.5 |
| 20260902071614 | 77 | 124 | 0.0 | 0.0 | 0.00 | 0.19 | 0.00 | 1 | 1012.6 |
| 20260902070558 | 77 | 124 | 0.0 | 0.0 | 0.00 | 0.19 | 0.00 | 1 | 1012.7 |
| 20260902065618 | 77 | 124 | 0.0 | 0.0 | 0.00 | 0.19 | 0.00 | 1 | 1012.7 |
| 20260902064621 | 77 | 124 | 0.0 | 0.0 | 0.00 | 0.19 | 0.00 | 1 | 1012.6 |
| 20260902063633 | 77 | 119 | 0.0 | 2.0 | 0.00 | 0.19 | 0.00 | 1 | 1012.6 |
| 20260902062558 | 77 | 113 | 0.0 | 0.0 | 0.00 | 0.19 | 0.00 | 1 | 1012.8 |
| 20260902061526 | 77 | 113 | 0.0 | 1.0 | 0.00 | 0.19 | 0.00 | 1 | 1012.7 |
| 20260902060517 | 77 | 113 | 0.0 | 0.0 | 0.00 | 0.19 | 0.00 | 1 | 1012.6 |
| 20260902055519 | 77 | 113 | 0.0 | 0.0 | 0.00 | 0.19 | 0.00 | 1 | 1012.5 |
| 20260902054512 | 78 | 113 | 0.0 | 0.0 | 0.00 | 0.19 | 0.00 | 1 | 1012.4 |
| 20260902053526 | 78 | 249 | 0.0 | 0.0 | 0.00 | 0.19 | 0.00 | 1 | 1012.4 |
| 20260902051420 | 78 | 249 | 0.0 | 0.0 | 0.00 | 0.19 | 0.00 | 1 | 1012.4 |
| 20260902050355 | 78 | 260 | 0.0 | 0.0 | 0.00 | 0.19 | 0.00 | 1 | 1012.6 |
| 20260902045337 | 78 | 260 | 0.0 | 0.0 | 0.00 | 0.19 | 0.20 | 1 | 1012.6 |
| 20260902044315 | 78 | 260 | 0.0 | 0.0 | 0.00 | 0.19 | 0.20 | 1 | 1012.6 |
| 20260902043313 | 78 | 260 | 0.0 | 0.0 | 0.00 | 0.19 | 0.20 | 1 | 1012.6 |
| 20260902042329 | 78 | 260 | 0.0 | 0.0 | 0.00 | 0.19 | 0.20 | 1 | 1012.5 |
| 20260902041302 | 78 | 259 | 0.0 | 0.0 | 0.00 | 0.19 | 0.20 | 1 | 1012.7 |
| 20260902040317 | 78 | 260 | 0.0 | 0.0 | 0.00 | 0.19 | 0.20 | 1 | 1012.7 |
| 20260902035310 | 78 | 260 | 0.0 | 0.0 | 0.00 | 0.19 | 0.20 | 1 | 1012.6 |
| 20260902034321 | 79 | 260 | 0.0 | 0.0 | 0.00 | 0.19 | 0.20 | 1 | 1012.7 |
| 20260902033311 | 79 | 260 | 0.0 | 0.0 | 0.00 | 0.19 | 0.20 | 1 | 1012.7 |
| 20260902032248 | 79 | 260 | 0.0 | 0.0 | 0.00 | 0.19 | 0.20 | 1 | 1012.7 |
| 20260902031308 | 79 | 260 | 0.0 | 0.0 | 0.00 | 0.19 | 0.20 | 1 | 1012.8 |
| 20260902025051 | 79 | 259 | 0.0 | 0.0 | 0.00 | 0.19 | 0.20 | 1 | 1012.7 |
| 20260902022951 | 79 | 260 | 0.0 | 0.0 | 0.00 | 0.19 | 0.20 | 1 | 1012.3 |
| 20260902022004 | 79 | 260 | 0.0 | 0.0 | 0.00 | 0.19 | 0.20 | 1 | 1012.2 |
| 20260902020949 | 79 | 260 | 0.0 | 0.0 | 0.00 | 0.19 | 0.20 | 1 | 1012.0 |
| 20260902015938 | 79 | 260 | 0.0 | 0.0 | 0.00 | 0.19 | 0.20 | 1 | 1012.1 |
| 20260902014916 | 79 | 260 | 0.0 | 0.0 | 0.00 | 0.19 | 0.20 | 1 | 1012.1 |
| 20260902013939 | 79 | 260 | 0.0 | 0.0 | 0.00 | 0.19 | 0.20 | 1 | 1011.8 |
| 20260902012943 | 79 | 260 | 0.0 | 0.0 | 0.00 | 0.19 | 0.20 | 1 | 1011.7 |
| 20260902012005 | 80 | 260 | 0.0 | 0.0 | 0.00 | 0.19 | 0.20 | 1 | 1011.7 |
| 20260902011004 | 80 | 260 | 0.0 | 0.0 | 0.00 | 0.19 | 0.20 | 1 | 1011.7 |
| 20260902010001 | 80 | 260 | 0.0 | 0.0 | 0.00 | 0.19 | 0.20 | 1 | 1011.7 |
| 20260902004944 | 80 | 260 | 0.0 | 0.0 | 0.00 | 0.19 | 0.20 | 1 | 1011.8 |
| 20260902003949 | 80 | 260 | 0.0 | 0.0 | 0.00 | 0.19 | 0.20 | 1 | 1012.0 |